• în Republica Moldova
  • Lista ţărilor
  • Pe 7 zile
  • Temperatura apei
  • Hartă satelitară
  • Meteo pe hartă
  • Widget-uri
  • user-avatar
    Intrare

    Meteo pe oră la Namibe

    Astăzi, 26 Aprilie, Joi

    Timp Temperatura Precipitaţii Vânt Presiune Umiditate
    00:00 +30°C° 0 mm 4 m/s 758 mmHg 60%
    01:00 +30°C° 0 mm 3 m/s 758 mmHg 61%
    02:00 +30°C° 0 mm 3 m/s 758 mmHg 62%
    03:00 +30°C° 0 mm 3 m/s 757 mmHg 63%
    04:00 +30°C° 0 mm 2 m/s 757 mmHg 64%
    05:00 +29°C° 0 mm 2 m/s 757 mmHg 64%
    06:00 +29°C° 0 mm 2 m/s 758 mmHg 65%
    07:00 +29°C° 0 mm 2 m/s 758 mmHg 64%
    08:00 +31°C° 0 mm 2 m/s 758 mmHg 58%
    09:00 +32°C° 0 mm 2 m/s 758 mmHg 51%
    10:00 +34°C° 0 mm 1 m/s 758 mmHg 45%
    11:00 +36°C° 0 mm 2 m/s 757 mmHg 42%
    12:00 +37°C° 0 mm 3 m/s 757 mmHg 39%
    13:00 +38°C° 0 mm 4 m/s 757 mmHg 38%
    14:00 +37°C° 0 mm 4 m/s 756 mmHg 41%
    15:00 +36°C° 0 mm 5 m/s 756 mmHg 45%
    16:00 +36°C° 0 mm 5 m/s 756 mmHg 48%
    17:00 +34°C° 0 mm 5 m/s 756 mmHg 52%
    18:00 +33°C° 0 mm 5 m/s 756 mmHg 56%
    19:00 +32°C° 0 mm 5 m/s 757 mmHg 59%
    20:00 +30°C° 0 mm 4 m/s 757 mmHg 59%
    21:00 +30°C° 0 mm 4 m/s 757 mmHg 59%
    22:00 +30°C° 0 mm 3 m/s 758 mmHg 59%
    23:00 +30°C° 0 mm 3 m/s 758 mmHg 59%

    Mâine, 27 Aprilie, Vineri

    Timp Temperatura Precipitaţii Vânt Presiune Umiditate
    00:00 +30°C° 0 mm 3 m/s 758 mmHg 60%
    01:00 +30°C° 0 mm 3 m/s 758 mmHg 60%
    02:00 +30°C° 0 mm 3 m/s 757 mmHg 61%
    03:00 +29°C° 0 mm 3 m/s 757 mmHg 63%
    04:00 +29°C° 0 mm 3 m/s 757 mmHg 64%
    05:00 +29°C° 0 mm 3 m/s 757 mmHg 63%
    06:00 +30°C° 0 mm 3 m/s 757 mmHg 62%
    07:00 +30°C° 0 mm 3 m/s 758 mmHg 61%
    08:00 +31°C° 0 mm 3 m/s 758 mmHg 54%
    09:00 +34°C° 0 mm 3 m/s 758 mmHg 48%
    10:00 +35°C° 0 mm 3 m/s 758 mmHg 42%
    11:00 +36°C° 0 mm 3 m/s 758 mmHg 39%
    12:00 +38°C° 0 mm 4 m/s 757 mmHg 35%
    13:00 +40°C° 0 mm 4 m/s 757 mmHg 32%
    14:00 +39°C° 0 mm 5 m/s 756 mmHg 35%
    15:00 +39°C° 0 mm 6 m/s 756 mmHg 38%
    16:00 +38°C° 0 mm 6 m/s 755 mmHg 41%
    17:00 +35°C° 0 mm 6 m/s 756 mmHg 45%
    18:00 +34°C° 0 mm 6 m/s 756 mmHg 50%
    19:00 +32°C° 0 mm 5 m/s 756 mmHg 54%
    20:00 +32°C° 0 mm 5 m/s 757 mmHg 54%
    21:00 +32°C° 0 mm 4 m/s 757 mmHg 54%
    22:00 +30°C° 0 mm 3 m/s 758 mmHg 54%
    23:00 +30°C° 0 mm 3 m/s 758 mmHg 56%

    Poimâine, 28 Aprilie, Sâmbătă

    Timp Temperatura Precipitaţii Vânt Presiune Umiditate
    00:00 +30°C° 0 mm 3 m/s 758 mmHg 58%
    01:00 +30°C° 0 mm 3 m/s 758 mmHg 60%
    02:00 +29°C° 0 mm 3 m/s 758 mmHg 62%
    03:00 +29°C° 0 mm 2 m/s 758 mmHg 65%
    04:00 +28°C° 0 mm 2 m/s 758 mmHg 67%
    05:00 +28°C° 0 mm 2 m/s 758 mmHg 67%
    06:00 +29°C° 0 mm 2 m/s 758 mmHg 67%
    07:00 +29°C° 0 mm 1 m/s 758 mmHg 66%
    08:00 +31°C° 0 mm 1 m/s 758 mmHg 57%
    09:00 +33°C° 0 mm 1 m/s 759 mmHg 48%
    10:00 +35°C° 0 mm 1 m/s 759 mmHg 39%
    11:00 +37°C° 0 mm 2 m/s 758 mmHg 35%
    12:00 +38°C° 0 mm 3 m/s 758 mmHg 31%
    13:00 +40°C° 0 mm 4 m/s 757 mmHg 27%
    14:00 +38°C° 0 mm 4 m/s 757 mmHg 33%
    15:00 +37°C° 0 mm 5 m/s 756 mmHg 39%
    16:00 +36°C° 0 mm 6 m/s 756 mmHg 45%
    17:00 +35°C° 0 mm 5 m/s 757 mmHg 51%
    18:00 +33°C° 0 mm 4 m/s 757 mmHg 57%
    19:00 +30°C° 0 mm 4 m/s 758 mmHg 63%
    20:00 +30°C° 0 mm 3 m/s 758 mmHg 64%
    21:00 +30°C° 0 mm 2 m/s 759 mmHg 65%
    22:00 +29°C° 0 mm 1 m/s 759 mmHg 65%
    23:00 +29°C° 0 mm 1 m/s 759 mmHg 66%

    29 Aprilie, Duminică

    Timp Temperatura Precipitaţii Vânt Presiune Umiditate
    00:00 +29°C° 0 mm 1 m/s 759 mmHg 66%
    01:00 +29°C° 0 mm 1 m/s 759 mmHg 67%
    02:00 +29°C° 0 mm 1 m/s 759 mmHg 68%
    03:00 +29°C° 0 mm 2 m/s 759 mmHg 69%
    04:00 +29°C° 0 mm 2 m/s 758 mmHg 71%
    05:00 +29°C° 0 mm 2 m/s 758 mmHg 69%
    06:00 +29°C° 0 mm 2 m/s 759 mmHg 67%
    07:00 +29°C° 0 mm 2 m/s 759 mmHg 65%
    08:00 +31°C° 0 mm 2 m/s 759 mmHg 56%
    09:00 +34°C° 0 mm 3 m/s 759 mmHg 47%
    10:00 +36°C° 0 mm 3 m/s 759 mmHg 38%
    11:00 +37°C° 0 mm 3 m/s 759 mmHg 33%
    12:00 +38°C° 0 mm 4 m/s 758 mmHg 29%
    13:00 +40°C° 0 mm 4 m/s 757 mmHg 24%
    14:00 +40°C° 0 mm 5 m/s 757 mmHg 28%
    15:00 +39°C° 0 mm 5 m/s 756 mmHg 32%
    16:00 +39°C° 0 mm 6 m/s 756 mmHg 37%
    17:00 +36°C° 0 mm 5 m/s 756 mmHg 45%
    18:00 +34°C° 0 mm 5 m/s 756 mmHg 53%
    19:00 +32°C° 0 mm 4 m/s 757 mmHg 62%
    20:00 +32°C° 0 mm 4 m/s 757 mmHg 61%
    21:00 +30°C° 0 mm 3 m/s 758 mmHg 60%
    22:00 +30°C° 0 mm 2 m/s 758 mmHg 59%
    23:00 +30°C° 0 mm 2 m/s 758 mmHg 59%

    30 Aprilie, Luni

    Timp Temperatura Precipitaţii Vânt Presiune Umiditate
    00:00 +30°C° 0 mm 2 m/s 758 mmHg 59%
    01:00 +30°C° 0 mm 2 m/s 758 mmHg 60%
    02:00 +30°C° 0 mm 2 m/s 757 mmHg 58%
    03:00 +30°C° 0 mm 2 m/s 757 mmHg 57%
    04:00 +30°C° 0 mm 2 m/s 757 mmHg 56%
    05:00 +30°C° 0 mm 2 m/s 757 mmHg 53%
    06:00 +30°C° 0 mm 2 m/s 757 mmHg 50%
    07:00 +30°C° 0 mm 2 m/s 758 mmHg 47%
    08:00 +32°C° 0 mm 2 m/s 758 mmHg 40%
    09:00 +35°C° 0 mm 2 m/s 758 mmHg 34%
    10:00 +37°C° 0 mm 2 m/s 758 mmHg 27%
    11:00 +38°C° 0 mm 3 m/s 757 mmHg 26%
    12:00 +39°C° 0 mm 3 m/s 757 mmHg 25%
    13:00 +41°C° 0 mm 4 m/s 756 mmHg 23%
    14:00 +41°C° 0 mm 4 m/s 755 mmHg 26%
    15:00 +40°C° 0 mm 5 m/s 755 mmHg 29%
    16:00 +40°C° 0 mm 6 m/s 755 mmHg 32%
    17:00 +37°C° 0 mm 5 m/s 755 mmHg 39%
    18:00 +35°C° 0 mm 4 m/s 756 mmHg 45%
    19:00 +33°C° 0 mm 3 m/s 756 mmHg 51%
    20:00 +32°C° 0 mm 2 m/s 757 mmHg 52%
    21:00 +32°C° 0 mm 2 m/s 757 mmHg 53%
    22:00 +32°C° 0 mm 2 m/s 758 mmHg 54%
    23:00 +32°C° 0 mm 2 m/s 758 mmHg 53%

    1 Mai, Marţi

    Timp Temperatura Precipitaţii Vânt Presiune Umiditate
    00:00 +32°C° 0 mm 1 m/s 757 mmHg 52%
    01:00 +32°C° 0 mm 1 m/s 757 mmHg 52%
    02:00 +32°C° 0 mm 2 m/s 757 mmHg 51%
    03:00 +32°C° 0 mm 2 m/s 757 mmHg 50%
    04:00 +32°C° 0 mm 2 m/s 757 mmHg 49%
    05:00 +32°C° 0 mm 2 m/s 757 mmHg 48%
    06:00 +32°C° 0 mm 2 m/s 758 mmHg 47%
    07:00 +32°C° 0 mm 2 m/s 758 mmHg 46%
    08:00 +35°C° 0 mm 2 m/s 758 mmHg 41%
    09:00 +36°C° 0 mm 3 m/s 758 mmHg 36%
    10:00 +38°C° 0 mm 3 m/s 758 mmHg 30%
    11:00 +39°C° 0 mm 3 m/s 757 mmHg 29%
    12:00 +41°C° 0 mm 4 m/s 756 mmHg 27%
    13:00 +42°C° 0 mm 4 m/s 756 mmHg 25%
    14:00 +41°C° 0 mm 5 m/s 755 mmHg 27%
    15:00 +40°C° 0 mm 5 m/s 755 mmHg 30%
    16:00 +40°C° 0 mm 6 m/s 755 mmHg 32%
    17:00 +37°C° 0 mm 5 m/s 755 mmHg 38%
    18:00 +35°C° 0 mm 5 m/s 756 mmHg 44%
    19:00 +33°C° 0 mm 4 m/s 757 mmHg 50%
    20:00 +33°C° 0 mm 4 m/s 757 mmHg 50%
    21:00 +33°C° 0 mm 3 m/s 758 mmHg 50%
    22:00 +31°C° 0 mm 3 m/s 758 mmHg 51%
    23:00 +31°C° 0 mm 2 m/s 758 mmHg 51%
    Arată mai mult